Погода в Каа-Хеме

Россия / Республика Тыва     51°41′50″N   94°33′34″E
темп.,
°C
ветер,
м/с
пор.,
м/с
влажн.,
%
обл.,
%
осадки,
мм/ч
давл.,
гПа
погр.,
м
16 мая, вс
вс1601:00+11ссв225189 0.0 102013
04:00+12вюв115075 0.0 101913
07:00+12юв114721 0.0 1020234
10:00+16ююз013867 0.0 1018981
13:00+20зюз2431100 0.0 10142073
16:00+21ссз4732100 0.0 10122054
19:00+17с46475 0.0 1012611
22:00+14ссв225857 0.0 101217
17 мая, пн
пн1701:00+12с1264100 0.1 101111
04:00+12ссв116698 0.0 100914
07:00+13св2365100 0.1 1010155
10:00+16зюз2449100 0.0 1008774
13:00+13сз3772100 0.9 1010470
16:00+19сз8104085 0.0 10091851
19:00+16сз784785 0.0 1010939
22:00+12сз3563100 0.0 1012110
18 мая, вт
вт1801:00+11ссз3266100 0.0 101234
04:00+10с2274100 0.0 101218
07:00+12зсз2464100 0.0 1012325
10:00+14зюз2457100 0.3 1010840
13:00+17зсз2646100 0.5 10081913
16:00+15с4459100 0.2 1006390
19:00+13ссв1176100 1.8 1006189
22:00+11сз1182100 1.3 100612
19 мая, ср
ср1901:00+11в0088100 2.1 100519
04:00+11ссв1186100 0.3 100415
07:00+13ю017899 0.4 1003184
10:00+19сз594025 0.2 10022219
13:00+20зсз2434100 0.2 9992073
16:00+21юз7931100 0.1 9952488
19:00+16юз355374 0.6 996826
22:00+14вюв226698 0.0 99631
20 мая, чт
чт2001:00+13в2277100 0.9 99477
04:00+13ссз41068100 1.4 994893
07:00+9сз81442100 2.4 9991064
10:00+7сз7946100 0.1 10031041
13:00+9с4542100 0.2 10031817
16:00+10ссз5636100 0.1 10022041
19:00+6ссз7839100 0.3 10061412
22:00+5ссз5639100 0.1 10091102